[[{"header":{"parameterUnit":"m.s-1","parameterCategory":1,"la1":30.2991,"la2":30.254,"lo1":-89.0895,"lo2":-89.0444,"dy":0.0017,"dx":0.0017,"nx":28,"ny":28,"refTime":"2025-01-10T03:00:00:Z","depth":0,"parameterNumber":2,"parameterNumberName":"U-component_of_WINDS"},"data":[0,0,0,0,0,0,0,0,0,0,0,0,0,0,0,0,0,0,0,0,0,0,0,0,0,0,0,0,0,0,0,0,0,0,0,0,0,0,0,0,0,0,0,0,0,0,0,0,0,0,0,0,0,0,0,0,0,0,-3.642,-3.642,0,-3.6409,-3.6409,-3.6409,-3.6263,-3.626,-3.6256,-3.6253,-3.6245,-3.6249,-3.6252,0,0,0,0,0,0,0,0,0,0,0,0,0,-3.6317,-3.6319,-3.642,-3.642,-3.6419,-3.6409,-3.6409,-3.6409,-3.6264,-3.626,-3.6255,-3.6251,-3.6244,-3.6248,-3.6252,0,0,0,0,0,0,0,0,0,0,0,0,0,-3.634,-3.632,-3.642,-3.6346,-3.6339,-3.6409,-3.6409,-3.6409,-3.6265,-3.6259,-3.6254,-3.6249,-3.6243,-3.6248,-3.6253,-3.6394,0,0,-3.6267,-3.627,0,0,0,0,0,0,0,0,-3.6339,-3.6344,-3.6357,-3.6351,-3.6344,-3.6332,-3.637,-3.6404,-3.6266,-3.6293,-3.6252,-3.6246,-3.6279,-3.628,-3.6291,-3.6394,-3.6393,-3.6268,-3.6271,-3.6273,-3.6274,0,0,0,0,0,0,0,-3.6337,-3.6343,-3.6416,-3.6357,-3.6349,-3.6314,-3.6311,-3.6376,-3.6318,-3.6291,-3.628,-3.6281,-3.6274,-3.6286,-3.629,-3.6393,-3.6268,-3.6272,-3.6275,-3.6277,-3.661,-3.6616,0,0,0,0,0,0,-3.6345,-3.6343,-3.6416,-3.6415,-3.6327,-3.632,-3.6317,-3.6341,-3.6316,-3.6307,-3.6285,-3.6274,-3.6281,-3.6284,-3.6289,-3.6451,-3.6273,-3.6278,-3.628,-3.6605,-3.6612,-3.6618,0,0,0,0,0,0,-3.6344,-3.6353,-3.6416,-3.6376,-3.6382,-3.6328,-3.6356,-3.6344,-3.6356,-3.6312,-3.6301,-3.6308,-3.6277,-3.6282,-3.6368,-3.6449,-3.628,-3.6284,-3.6598,-3.6607,-3.6615,-3.6779,0,0,0,0,0,0,-3.6341,-3.6354,-3.6406,-3.6378,-3.6384,-3.6496,-3.6361,-3.6348,-3.6364,-3.6349,-3.6331,-3.6323,-3.6273,-3.6362,-3.6373,-3.6453,-3.6288,-3.659,-3.6602,-3.6612,-3.6766,-3.6792,-3.6815,0,0,0,0,0,-3.6338,-3.6454,-3.641,-3.6419,-3.6449,-3.6501,-3.6504,-3.6443,-3.6372,-3.6424,-3.6396,-3.6323,-3.6439,-3.6372,-3.6384,-3.6466,-3.6585,-3.6598,-3.6611,-3.6755,-3.6787,-3.6814,0,0,0,0,0,0,-3.6494,-3.6449,-3.6399,-3.6509,-3.651,-3.6476,-3.654,-3.6479,-3.6501,-3.6486,-3.6411,-3.6408,-3.6506,-3.6495,-3.6421,-3.6601,-3.6499,-3.6515,-3.6605,-3.6635,-3.6659,-3.6659,-3.6292,0,0,0,0,0,-3.654,-3.6586,-3.6544,-3.6645,-3.6648,-3.6595,-3.6615,-3.6568,-3.6566,-3.6566,-3.6544,-3.6546,-3.6582,-3.6608,-3.6639,-3.6764,-3.6758,-3.6827,-3.6851,-3.6871,-3.6886,-3.695,-3.698,-3.6662,-3.6662,-3.6662,0,0,-3.6638,-3.6619,-3.6652,-3.6676,-3.6671,-3.672,-3.6596,-3.6653,-3.6689,-3.6575,-3.6654,-3.6639,-3.6636,-3.6742,-3.6788,-3.6736,-3.6973,-3.6888,-3.6905,-3.6908,-3.6967,-3.6997,-3.7024,-3.6671,-3.6669,-3.6668,0,0,-3.684,-3.6831,-3.6913,-3.691,-3.6904,-3.6867,-3.6888,-3.6863,-3.6848,-3.6927,-3.6842,-3.6884,-3.6949,-3.695,-3.6959,-3.7162,-3.7096,-3.7174,-3.7301,-3.7365,-3.739,-3.7412,-3.7484,-3.751,-3.7189,-3.719,-3.719,0,-3.6963,-3.7032,-3.6964,-3.7026,-3.7039,-3.6937,-3.702,-3.7021,-3.7026,-3.7038,-3.6979,-3.7057,-3.7048,-3.7153,-3.7202,-3.7214,-3.7234,-3.7175,-3.7392,-3.7413,-3.7433,-3.75,-3.7527,-3.7199,-3.7198,-3.7197,-3.7196,0,-3.7182,-3.7232,-3.7299,-3.7304,-3.7325,-3.7398,-3.7341,-3.7371,-3.7322,-3.7293,-3.7374,-3.736,-3.7386,-3.7407,-3.7361,-3.7506,-3.7473,-3.7405,-3.7301,-3.7474,-3.7536,-3.7561,-3.7213,-3.721,-3.7207,-3.7204,0,0,-3.7481,-3.7448,-3.7473,-3.7474,-3.746,-3.7497,-3.7566,-3.759,-3.7616,-3.7623,-3.7679,-3.7736,-3.7672,-3.7682,-3.7636,-3.7692,-3.7852,-3.7616,-3.7615,-3.766,-3.801,-3.8061,-3.8092,-3.7809,-3.7814,-3.7817,-3.801,0,-3.7675,-3.7788,-3.7729,-3.785,-3.7895,-3.7799,-3.7859,-3.7857,-3.7831,-3.7866,-3.7838,-3.7879,-3.7792,-3.7798,-3.7849,-3.7822,-3.7922,-3.7808,-3.786,-3.7863,-3.7862,-3.8124,-3.8178,-3.8361,-3.8034,-3.8038,-3.8041,0,-3.7917,-3.7932,-3.8058,-3.8034,-3.805,-3.8105,-3.8122,-3.8156,-3.8153,-3.813,-3.8142,-3.8082,-3.8148,-3.8046,-3.8136,-3.8059,-3.8077,-3.8068,-3.8073,-3.8075,-3.7961,-3.8132,-3.8417,-3.8445,-3.8079,-3.8076,-3.8073,0,-3.8121,-3.8174,-3.8255,-3.8259,-3.8234,-3.8274,-3.8266,-3.8256,-3.8274,-3.829,-3.8301,-3.8325,-3.8338,-3.8359,-3.8307,-3.8237,-3.8404,-3.8298,-3.8387,-3.8389,-3.8426,-3.8424,-3.8717,-3.844,-3.8439,-3.8439,-3.8438,0,-3.8343,-3.8424,-3.8346,-3.8396,-3.8484,-3.8415,-3.8504,-3.8485,-3.8478,-3.8523,-3.8443,-3.8487,-3.8416,-3.8454,-3.8415,-3.8495,-3.8502,-3.8486,-3.8474,-3.8492,-3.8494,-3.8502,-3.8488,-3.8446,-3.8444,-3.8443,-3.8442,0,-3.8586,-3.8537,-3.8619,-3.8588,-3.8582,-3.8648,-3.8622,-3.8667,-3.8636,-3.8694,-3.8704,-3.8656,-3.8696,-3.8647,-3.8683,-3.8656,-3.8766,-3.8736,-3.8767,-3.8757,-3.8849,-3.8841,-3.9157,-3.9195,-3.8895,-3.8898,-3.89,0,-3.873,-3.8789,-3.8764,-3.8788,-3.8784,-3.8824,-3.8841,-3.8777,-3.8799,-3.8799,-3.8845,-3.8878,-3.8901,-3.897,-3.8939,-3.8966,-3.8936,-3.9045,-3.8939,-3.8956,-3.8936,-3.8933,-3.8938,-3.9066,-3.9069,-3.9072,-3.9075,0,-3.8991,-3.8964,-3.8992,-3.9012,-3.9035,-3.9048,-3.9055,-3.908,-3.9012,-3.9041,-3.9081,-3.9099,-3.9135,-3.9169,-3.9188,-3.918,-3.9117,-3.9108,-3.913,-3.9149,-3.9164,-3.9156,-3.8824,-3.9101,-3.9098,-3.9096,-3.9095,-3.9094,-3.9188,-3.9236,-3.9225,-3.9259,-3.9257,-3.9266,-3.9306,-3.928,-3.9311,-3.9335,-3.9295,-3.9345,-3.934,-3.9358,-3.9358,-3.9396,-3.9349,-3.9382,-3.939,-3.9398,-3.9412,-3.9159,-3.94,-3.9399,-3.9398,-3.9397,-3.9397,0,-3.9444,-3.9432,-3.9464,-3.9475,-3.9502,-3.9439,-3.9444,-3.9471,-3.9515,-3.9515,-3.9539,-3.9584,-3.9617,-3.9588,-3.9615,-3.9652,-3.9624,-3.9661,-3.9657,-3.9656,-3.9452,-3.943,-3.9684,-3.9683,-3.9683,-3.9683,-3.9683,-3.9683,-3.958,-3.9657,-3.9629,-3.9705,-3.9692,-3.9739,-3.9747,-3.9755,-3.9754,-3.9808,-3.9834,-3.9815,-3.9803,-3.9829,-3.9856,-3.9847,-3.9861,-3.9909,-3.9889,-3.9699,-3.9671,-3.9644,-3.9623,-3.9912,-3.9913,-4.009,-4.0091,-4.0093]},{"header":{"parameterUnit":"m.s-1","parameterCategory":1,"la1":30.2991,"la2":30.254,"lo1":-89.0895,"lo2":-89.0444,"dy":0.0017,"dx":0.0017,"nx":28,"ny":28,"refTime":"2025-01-10T03:00:00:Z","depth":0,"parameterNumber":3,"parameterNumberName":"V-component_of_WINDS"},"data":[0,0,0,0,0,0,0,0,0,0,0,0,0,0,0,0,0,0,0,0,0,0,0,0,0,0,0,0,0,0,0,0,0,0,0,0,0,0,0,0,0,0,0,0,0,0,0,0,0,0,0,0,0,0,0,0,0,0,-0.6803,-0.6804,0,-0.6855,-0.6856,-0.6856,-0.685,-0.6849,-0.6849,-0.6848,-0.6905,-0.6907,-0.6909,0,0,0,0,0,0,0,0,0,0,0,0,0,-0.6701,-0.6703,-0.6803,-0.6804,-0.6805,-0.6855,-0.6856,-0.6857,-0.685,-0.6849,-0.6848,-0.6847,-0.6904,-0.6907,-0.6909,0,0,0,0,0,0,0,0,0,0,0,0,0,-0.6748,-0.6703,-0.6803,-0.6808,-0.6808,-0.6855,-0.6856,-0.6857,-0.6851,-0.6849,-0.6848,-0.6847,-0.6903,-0.6906,-0.691,-0.6957,0,0,-0.692,-0.6922,0,0,0,0,0,0,0,0,-0.6746,-0.6752,-0.6806,-0.6807,-0.6808,-0.6845,-0.6841,-0.689,-0.6851,-0.6835,-0.6848,-0.6846,-0.6886,-0.6891,-0.6904,-0.6959,-0.6962,-0.6921,-0.6923,-0.6924,-0.6925,0,0,0,0,0,0,0,-0.6742,-0.675,-0.6824,-0.6807,-0.6808,-0.6807,-0.6813,-0.685,-0.6867,-0.6836,-0.6836,-0.6842,-0.6886,-0.69,-0.6905,-0.6963,-0.6921,-0.6924,-0.6926,-0.6927,-0.7058,-0.7059,0,0,0,0,0,0,-0.6738,-0.6747,-0.6822,-0.6826,-0.6773,-0.681,-0.6816,-0.6835,-0.6867,-0.687,-0.6843,-0.6841,-0.6895,-0.6901,-0.6907,-0.6963,-0.6924,-0.6928,-0.693,-0.7056,-0.7058,-0.7059,0,0,0,0,0,0,-0.6735,-0.6744,-0.682,-0.6786,-0.6796,-0.6813,-0.6834,-0.6836,-0.685,-0.6872,-0.6875,-0.6854,-0.6894,-0.6902,-0.6944,-0.6965,-0.6929,-0.6932,-0.7055,-0.7057,-0.7059,-0.7076,0,0,0,0,0,0,-0.6732,-0.6744,-0.6761,-0.6787,-0.6798,-0.6856,-0.6835,-0.6838,-0.6855,-0.6854,-0.6883,-0.6886,-0.6894,-0.6938,-0.6947,-0.6969,-0.6935,-0.7053,-0.7055,-0.7058,-0.7073,-0.7078,-0.7082,0,0,0,0,0,-0.6729,-0.6765,-0.6762,-0.6771,-0.682,-0.6857,-0.6863,-0.687,-0.6857,-0.6875,-0.6889,-0.6885,-0.6961,-0.6943,-0.6952,-0.6976,-0.7051,-0.7055,-0.7058,-0.7071,-0.7077,-0.7082,0,0,0,0,0,0,-0.6744,-0.6769,-0.6766,-0.6812,-0.6832,-0.6856,-0.6879,-0.6876,-0.6902,-0.69,-0.6908,-0.6915,-0.6957,-0.697,-0.695,-0.7022,-0.7004,-0.701,-0.7012,-0.7017,-0.7021,-0.7018,-0.6938,0,0,0,0,0,-0.6753,-0.678,-0.68,-0.6839,-0.6849,-0.6862,-0.6878,-0.6881,-0.6904,-0.6913,-0.693,-0.6952,-0.698,-0.6999,-0.7027,-0.7075,-0.7081,-0.7095,-0.71,-0.7103,-0.7108,-0.7133,-0.7139,-0.707,-0.707,-0.7069,0,0,-0.6771,-0.6788,-0.6805,-0.6842,-0.6858,-0.6886,-0.687,-0.6901,-0.6922,-0.6918,-0.6958,-0.6971,-0.6996,-0.704,-0.7061,-0.7053,-0.7128,-0.7107,-0.711,-0.7113,-0.7137,-0.7143,-0.7149,-0.7072,-0.7071,-0.7071,0,0,-0.6819,-0.6834,-0.6867,-0.6883,-0.6907,-0.6915,-0.6923,-0.6947,-0.6954,-0.6994,-0.6991,-0.7016,-0.7066,-0.7084,-0.7099,-0.715,-0.7148,-0.7159,-0.7183,-0.7207,-0.7213,-0.7217,-0.7236,-0.7242,-0.7163,-0.7164,-0.7164,0,-0.684,-0.6881,-0.6885,-0.6916,-0.6932,-0.6927,-0.696,-0.6976,-0.7008,-0.702,-0.701,-0.707,-0.7087,-0.7135,-0.7147,-0.716,-0.7169,-0.7157,-0.7211,-0.7216,-0.7221,-0.7238,-0.7245,-0.7165,-0.7165,-0.7164,-0.7164,0,-0.6905,-0.6933,-0.6957,-0.6986,-0.7005,-0.7037,-0.7046,-0.7064,-0.7065,-0.7074,-0.7114,-0.7133,-0.7164,-0.7175,-0.7177,-0.7223,-0.7217,-0.7209,-0.7192,-0.7229,-0.7245,-0.7252,-0.7166,-0.7166,-0.7166,-0.7165,0,0,-0.6967,-0.6995,-0.7003,-0.7016,-0.704,-0.7063,-0.7094,-0.7122,-0.7138,-0.7159,-0.7186,-0.7226,-0.7218,-0.7235,-0.7239,-0.726,-0.7299,-0.7249,-0.725,-0.7258,-0.735,-0.7356,-0.7364,-0.7296,-0.7298,-0.7299,-0.7347,0,-0.7017,-0.7071,-0.7074,-0.7123,-0.7149,-0.7144,-0.7171,-0.7189,-0.7197,-0.7221,-0.7231,-0.7259,-0.7247,-0.7257,-0.7277,-0.729,-0.7317,-0.7286,-0.7322,-0.7323,-0.7316,-0.7372,-0.738,-0.7425,-0.7354,-0.7355,-0.7356,0,-0.7084,-0.7105,-0.7156,-0.7175,-0.7186,-0.721,-0.7235,-0.7258,-0.7278,-0.7282,-0.73,-0.73,-0.7332,-0.7313,-0.7357,-0.7335,-0.735,-0.7358,-0.736,-0.7364,-0.7343,-0.7379,-0.744,-0.7447,-0.7366,-0.7365,-0.7365,0,-0.7123,-0.7165,-0.72,-0.7211,-0.7234,-0.7251,-0.7262,-0.728,-0.7296,-0.7318,-0.7328,-0.7354,-0.7369,-0.7389,-0.7396,-0.7381,-0.744,-0.7421,-0.7445,-0.7445,-0.7459,-0.7458,-0.7524,-0.7467,-0.7467,-0.7467,-0.7467,0,-0.718,-0.7212,-0.7218,-0.7241,-0.7275,-0.7278,-0.7313,-0.7322,-0.7338,-0.7362,-0.7359,-0.7382,-0.7389,-0.7413,-0.7418,-0.7454,-0.746,-0.7465,-0.7467,-0.7466,-0.7466,-0.7477,-0.7474,-0.7469,-0.7468,-0.7468,-0.7467,0,-0.7231,-0.7237,-0.7275,-0.7292,-0.7297,-0.7322,-0.7338,-0.7359,-0.7365,-0.7396,-0.7403,-0.7414,-0.7442,-0.745,-0.7484,-0.7488,-0.7529,-0.7528,-0.7522,-0.7523,-0.7546,-0.7544,-0.7622,-0.7633,-0.7568,-0.7569,-0.7569,0,-0.7268,-0.7291,-0.731,-0.7325,-0.7335,-0.736,-0.7375,-0.7378,-0.7395,-0.7418,-0.7436,-0.7463,-0.7485,-0.7529,-0.7541,-0.7567,-0.7566,-0.7591,-0.757,-0.7568,-0.7567,-0.7565,-0.7568,-0.7596,-0.7597,-0.7597,-0.7598,0,-0.7331,-0.7332,-0.7354,-0.7376,-0.7394,-0.7412,-0.743,-0.7442,-0.7447,-0.7466,-0.7493,-0.751,-0.7543,-0.757,-0.7595,-0.7607,-0.7603,-0.7604,-0.7611,-0.7611,-0.7607,-0.761,-0.7534,-0.7603,-0.7602,-0.7602,-0.7601,-0.7601,-0.7376,-0.7396,-0.7412,-0.7436,-0.7449,-0.7464,-0.7484,-0.7492,-0.7515,-0.7541,-0.7541,-0.7571,-0.7588,-0.7622,-0.7634,-0.7658,-0.765,-0.7661,-0.7663,-0.7666,-0.7668,-0.7602,-0.7662,-0.7662,-0.7662,-0.7662,-0.7662,0,-0.744,-0.7449,-0.747,-0.7493,-0.7512,-0.7504,-0.7523,-0.7539,-0.7565,-0.7581,-0.7601,-0.7632,-0.7657,-0.7669,-0.7694,-0.7711,-0.771,-0.7717,-0.7717,-0.7719,-0.7673,-0.7665,-0.7718,-0.7718,-0.7718,-0.7718,-0.7718,-0.7718,-0.7475,-0.7508,-0.7511,-0.755,-0.7559,-0.7586,-0.7597,-0.7612,-0.7624,-0.7658,-0.7678,-0.7685,-0.77,-0.7725,-0.7748,-0.7751,-0.7761,-0.7769,-0.7772,-0.7728,-0.7723,-0.7718,-0.771,-0.7771,-0.7771,-0.7816,-0.7816,-0.7817]}]]